Theta_e
309 309 309 308 307 306 301 297 298 307 305 293 290 289 294 299 299 301 299 300 299 300 302 300 301 298 302 309 309 302 302 298 295 299 307 308 302 299 295 293 291 292 292 295
308 309 308 308 306 306 297 293 301 306 302 287 287 292 297 298 297 298 297 299 302 301 300 297 303 304 307 310 307 305 303 295 292 296 299 304 301 303 297 295 293 291 290 293
309 309 308 308 307 306 297 296 298 298 298 294 292 289 295 297 305 300 300 300 301 298 298 300 298 301 308 308 308 320 310 298 295 292 295 301 300 303 303 297 292 292 294 298
309 309 309 308 307 307 299 298 299 297 293 293 293 291 295 295 296 302 301 298 299 296 292 296 301 304 305 308 310 305 302 297 298 299 303 303 303 304 304 300 299 296 300 301
308 308 308 308 307 306 300 296 294 296 295 298 297 294 293 296 298 299 298 298 301 304 300 300 299 303 303 302 308 299 300 296 298 296 306 305 303 305 306 305 307 302 305 304
307 308 308 308 306 302 295 299 300 297 296 295 295 297 299 300 301 303 309 306 302 304 305 307 306 302 303 304 304 303 303 297 294 291 303 304 297 302 304 307 311 308 299 304
306 307 308 308 307 304 294 296 297 294 293 295 295 298 300 303 303 304 308 308 304 308 311 310 306 302 303 303 301 306 303 301 300 296 300 290 302 309 317 314 315 315 313 313
306 307 307 308 307 306 295 297 296 293 290 296 296 297 298 303 302 303 306 309 308 307 305 300 296 296 296 300 301 300 306 299 295 294 292 298 303 311 309 307 310 316 316 317
305 307 307 307 307 306 296 296 299 294 291 292 298 294 296 295 295 299 305 309 308 306 299 297 292 290 293 294 297 300 300 301 296 293 290 290 300 312 316 315 303 317 317 318
306 306 306 307 307 306 299 296 299 294 289 294 295 293 293 297 298 297 299 301 304 303 295 293 291 291 297 292 292 291 292 292 293 292 291 296 305 308 314 297 299 317 317 318
306 306 305 306 307 306 301 297 300 297 289 292 297 298 293 294 296 296 300 301 302 302 294 293 292 291 294 293 295 294 294 291 292 292 291 290 318 320 306 310 317 318 319 319
306 306 305 305 306 306 304 293 300 302 296 294 297 301 302 299 298 298 297 299 297 306 303 301 300 294 295 294 291 300 295 297 295 295 295 313 318 318 320 320 321 322 320 322
306 305 305 305 305 305 303 293 295 297 294 296 295 297 301 298 297 299 296 298 301 299 304 303 302 300 302 294 296 299 304 308 304 306 312 312 316 321 324 327 328 329 326 325
305 305 305 304 304 305 304 293 295 295 295 290 294 306 301 304 302 300 299 300 300 301 303 300 299 297 299 294 296 299 304 307 307 307 311 315 317 318 321 328 331 331 330 329
305 305 304 304 304 305 302 296 297 299 296 290 293 299 303 303 304 301 298 298 297 298 296 296 295 297 300 299 299 301 304 306 303 304 311 313 315 317 322 323 330 329 328 326
305 304 304 304 304 305 295 296 301 300 298 295 290 299 299 300 300 299 299 297 297 297 295 294 297 300 299 294 296 307 307 310 312 309 314 314 319 324 325 324 329 329 326 326
304 304 304 304 304 297 292 295 300 303 298 295 292 293 300 302 298 298 296 296 297 297 294 292 293 295 299 295 293 305 307 309 310 310 311 311 317 314 320 328 329 327 327 325
304 304 304 304 304 302 296 299 305 302 296 297 291 294 300 300 295 294 297 295 295 296 296 295 293 294 296 293 297 302 307 309 309 309 310 311 310 313 315 321 324 323 321 322
304 304 304 298 296 295 300 311 309 301 299 292 294 291 292 304 298 297 297 297 292 297 294 293 295 292 291 295 298 299 304 306 306 307 309 310 309 309 312 315 318 318 321 321
304 297 296 294 300 312 308 301 297 297 297 295 291 296 294 299 298 298 298 297 292 290 294 296 292 291 295 302 302 302 307 307 306 304 303 305 305 307 308 309 312 312 315 321
293 295 297 300 310 300 297 294 294 294 293 294 293 293 292 302 296 295 300 295 296 291 294 296 291 290 301 306 306 307 308 309 309 308 308 308 307 307 307 309 310 313 315 317
296 294 297 297 297 294 291 291 294 293 291 296 293 295 299 302 305 298 299 294 296 290 298 296 291 297 303 305 306 306 306 308 308 309 309 309 310 310 309 310 311 311 315 321
297 294 292 293 291 283 288 287 290 291 295 300 298 297 301 303 302 297 295 292 291 301 294 294 295 300 305 306 306 307 307 308 307 308 308 308 308 309 310 311 312 314 314 317
293 294 282 287 284 289 290 291 294 298 299 298 298 297 297 298 296 296 294 297 299 294 291 292 298 303 305 307 308 307 306 307 307 308 309 308 307 307 309 312 313 313 314 315
294 295 282 289 293 294 298 300 299 301 300 298 297 298 297 295 295 295 296 295 292 295 292 300 300 302 303 303 304 303 304 304 304 306 307 308 307 307 307 310 312 314 314 314
297 294 291 293 293 294 297 300 300 301 299 299 300 298 293 292 293 293 294 293 292 295 297 300 301 301 301 301 302 302 304 304 304 305 306 307 306 306 306 308 310 310 312 312
294 291 297 293 295 298 297 299 298 300 297 293 294 291 292 295 293 291 295 292 295 301 302 305 300 299 300 301 302 303 304 306 308 310 307 309 310 310 308 305 308 308 309 310
Wind_Speed
20 22 23 24 25 30 9 4 2 3 5 5 1 3 4 8 6 5 5 5 4 3 4 2 2 11 10 6 9 9 10 7 6 3 7 2 3 4 6 7 4 3 5 7
20 21 22 22 22 18 4 3 4 3 6 2 3 6 6 4 5 6 5 6 2 1 2 4 3 6 6 2 5 9 6 1 0 8 9 7 2 1 4 5 3 4 6 8
20 21 22 23 23 19 4 2 3 5 5 2 2 3 6 5 5 11 6 6 3 5 5 5 4 6 4 5 4 3 7 4 9 8 6 4 3 6 5 5 3 3 7 4
21 21 23 25 28 25 5 2 3 2 3 5 6 4 4 6 5 5 5 3 3 3 3 5 6 5 6 6 11 5 6 5 3 4 2 2 1 5 8 5 4 4 11 11
20 21 22 24 28 22 3 3 4 5 4 6 4 8 5 6 7 4 6 5 2 9 6 2 3 3 5 0 7 5 6 1 2 5 4 7 4 8 8 2 6 1 5 5
20 21 21 22 24 15 4 4 4 3 5 6 6 5 7 4 2 3 5 6 7 8 3 3 5 2 1 2 4 4 4 3 4 3 4 5 5 4 3 6 4 3 3 5
19 21 20 20 19 15 2 4 1 3 5 3 5 13 13 6 4 3 5 10 7 4 5 2 2 4 8 8 7 4 4 3 3 2 4 1 8 5 15 14 8 8 11 11
18 20 21 19 19 19 1 3 3 2 3 3 8 16 12 6 2 5 6 4 2 2 7 5 6 6 5 5 3 4 5 5 3 4 2 5 5 3 2 3 3 3 6 8
16 19 20 20 19 20 3 3 1 3 3 3 6 5 6 4 6 7 3 7 6 7 4 5 3 2 5 2 3 1 7 6 6 2 4 6 8 3 4 6 1 8 8 8
15 16 18 20 21 19 5 4 2 3 1 4 5 4 4 6 4 2 3 7 8 4 3 3 2 3 2 2 4 4 2 2 6 3 3 7 7 5 2 2 8 9 4 2
13 15 17 18 20 21 9 5 2 3 1 7 3 3 3 6 4 3 6 4 8 5 5 3 3 2 4 1 4 5 7 6 5 3 3 6 6 5 2 6 3 6 4 0
12 14 15 16 17 18 15 3 4 4 3 8 4 9 11 8 5 3 6 6 1 1 3 2 1 2 2 4 3 5 3 6 7 7 6 2 5 7 4 3 4 5 7 6
12 13 14 15 15 15 11 4 4 4 2 6 4 5 6 3 6 5 4 3 1 3 3 2 2 1 2 3 3 3 6 4 4 4 4 1 3 3 4 7 10 6 10 6
11 12 13 14 15 15 12 2 3 0 3 1 8 5 4 2 2 2 4 5 3 2 3 1 0 0 1 3 5 2 4 5 3 1 3 3 6 5 3 7 12 15 2 3
11 12 13 14 15 16 9 4 4 2 3 2 6 10 7 4 3 3 3 4 4 3 3 2 2 3 4 3 2 4 3 2 3 2 5 3 3 3 5 5 6 9 10 7
11 12 13 14 14 15 3 3 1 1 2 3 4 5 3 2 3 3 2 3 3 3 4 3 3 4 4 1 0 5 4 4 4 3 5 2 3 5 2 2 3 4 4 7
11 12 13 14 12 2 2 4 4 4 3 2 5 5 5 5 3 3 1 2 2 4 2 2 2 3 4 1 3 5 3 6 4 4 6 7 4 1 4 7 8 8 4 5
11 12 14 15 17 8 6 4 13 4 2 1 1 6 3 3 1 1 2 1 2 2 4 2 2 3 3 3 6 2 3 4 6 7 7 5 4 7 6 3 5 6 4 4
11 15 18 4 1 1 4 1 8 1 4 1 1 2 4 4 2 3 2 3 1 2 3 3 5 2 5 8 8 8 7 7 8 6 7 7 7 6 7 8 6 2 4 6
11 4 1 2 4 4 4 3 2 3 1 1 3 2 2 3 2 3 2 1 3 1 6 3 4 5 5 6 4 6 7 8 7 7 4 5 5 7 7 2 3 3 4 6
0 2 2 4 4 3 1 2 2 2 3 4 5 6 3 1 2 2 1 1 2 2 6 5 2 3 1 5 9 8 8 9 9 8 6 7 7 6 7 8 6 3 3 4
2 3 4 3 2 1 1 3 3 4 5 3 5 5 6 2 4 4 2 1 2 5 3 3 1 3 4 6 7 8 8 8 9 8 8 8 7 6 5 6 9 7 6 5
1 1 2 3 2 2 4 5 4 3 2 2 2 2 3 3 4 3 3 1 5 2 2 3 2 3 4 5 5 7 8 9 8 7 6 6 5 7 6 6 6 8 7 7
1 3 3 4 4 5 5 4 3 5 2 2 2 2 3 1 3 3 2 5 2 3 4 1 1 1 3 4 4 6 6 7 7 7 7 5 4 4 4 4 5 5 5 7
3 2 4 6 6 3 1 2 2 4 1 2 3 3 4 0 1 2 1 3 2 3 1 1 1 1 3 6 7 7 7 6 6 6 6 6 5 4 5 5 5 4 5 7
3 5 4 4 3 3 1 4 2 2 3 2 3 1 3 2 3 1 4 0 1 1 1 2 1 4 4 4 5 5 5 6 6 6 6 6 6 7 6 6 4 3 5 2
4 4 2 1 1 2 2 1 2 2 3 1 2 2 3 2 1 1 3 2 1 2 2 1 0 3 6 6 6 6 6 7 8 8 6 7 6 5 4 6 4 3 3 4
Wind_Direction
355 354 355 355 352 345 33 344 33 265 95 66 168 213 223 334 312 46 281 256 216 263 330 65 346 216 202 210 199 184 195 162 234 197 294 213 128 207 130 121 259 185 149 270
355 356 356 355 354 7 339 355 277 323 90 142 275 287 291 261 276 279 285 313 1 317 307 43 59 349 343 289 115 163 170 209 33 349 354 357 114 155 154 108 73 210 131 260
354 357 355 353 346 344 137 33 4 324 43 138 158 319 280 269 285 259 220 257 11 15 2 38 314 348 333 353 80 128 101 118 151 181 194 202 357 336 3 105 102 242 220 190
354 358 357 354 348 348 127 132 274 186 291 290 232 184 277 316 318 276 195 14 84 303 23 27 7 332 337 16 346 46 91 105 125 150 139 90 256 346 340 6 241 166 280 188
354 358 359 359 355 352 35 62 32 338 280 291 253 165 254 235 278 249 293 157 14 75 94 111 333 357 20 17 334 55 360 174 81 6 35 55 4 330 343 308 358 328 61 282
354 359 2 5 6 4 33 319 328 109 288 336 19 1 277 287 313 310 350 249 99 68 324 250 237 264 167 351 110 49 64 95 68 272 345 44 14 306 289 74 5 314 221 325
353 357 1 5 11 19 210 258 30 36 299 18 321 336 324 283 299 124 354 43 84 259 263 276 3 29 18 38 19 85 83 75 69 183 36 288 238 2 106 99 35 16 70 64
351 353 358 3 5 2 209 285 61 61 303 323 330 344 344 355 332 88 85 44 184 272 40 57 44 352 12 330 328 22 81 98 62 133 157 283 353 70 216 142 318 320 102 97
349 350 356 360 2 1 357 275 265 92 103 253 307 329 351 341 337 5 65 15 324 62 71 59 76 174 212 326 329 48 86 84 115 103 155 198 231 161 148 134 258 221 151 150
346 346 348 354 359 357 343 283 329 94 76 270 351 14 328 329 348 60 356 334 353 51 58 76 108 272 224 210 182 203 350 10 178 189 208 284 252 308 102 170 251 180 254 246
338 345 346 349 356 358 3 275 304 74 276 278 276 11 3 337 6 34 296 37 359 20 63 108 237 169 257 323 235 193 186 164 212 107 145 283 317 44 80 235 30 168 195 24
331 339 342 346 352 356 1 313 325 322 168 241 248 251 238 205 238 131 360 147 204 300 75 37 332 322 342 164 283 351 333 197 197 160 194 10 359 104 279 180 172 199 183 175
329 332 336 340 344 349 2 286 296 354 347 307 4 262 276 151 208 162 108 324 175 19 176 187 265 333 31 33 285 325 313 333 69 108 344 12 53 106 71 52 46 19 212 193
318 324 328 332 335 336 342 303 282 141 275 66 286 350 334 267 96 112 155 160 36 100 70 97 96 107 96 241 233 191 233 5 40 63 258 266 13 4 41 77 93 88 55 134
311 318 321 324 329 328 313 210 244 191 148 228 282 312 257 191 106 54 40 95 89 69 18 44 252 255 40 306 43 355 328 220 111 191 242 152 206 290 310 346 135 133 139 137
303 311 314 316 323 336 344 30 298 34 30 72 319 283 287 103 138 107 64 130 117 107 142 229 277 275 91 263 182 244 259 77 149 166 213 117 93 190 288 242 132 103 123 127
299 305 306 306 308 344 199 215 247 337 360 78 316 305 278 152 103 12 24 35 162 132 210 216 202 301 69 211 187 237 202 133 114 91 94 41 53 27 11 103 108 97 79 84
299 304 302 300 296 278 283 246 246 168 98 67 266 273 356 36 186 300 173 154 53 293 202 356 171 326 116 256 239 231 209 139 80 75 85 129 87 41 34 93 113 112 151 140
302 306 301 315 111 221 240 165 124 87 124 200 291 209 247 360 270 216 347 123 150 258 187 216 110 246 211 223 216 260 192 171 158 101 83 64 63 42 50 57 61 146 199 175
305 317 309 293 231 126 97 20 63 14 259 236 228 261 278 100 348 334 8 24 204 165 243 103 145 248 259 322 239 245 159 141 120 97 73 44 28 11 344 20 180 199 189 210
47 266 242 268 296 44 347 257 154 209 233 209 228 191 206 269 109 232 74 281 313 22 266 149 205 290 37 329 63 59 73 75 83 106 114 95 92 57 12 332 320 238 268 200
237 247 284 301 8 10 262 228 263 196 226 229 175 195 178 239 122 99 340 194 20 243 308 80 124 271 341 29 56 46 48 55 50 48 47 37 30 40 47 9 342 319 296 257
288 180 267 104 268 55 205 210 237 241 230 327 19 41 138 20 48 73 97 74 244 328 349 182 115 258 35 19 18 27 34 38 35 24 21 24 26 25 13 359 340 345 344 302
249 220 313 175 249 229 206 237 224 241 140 105 86 43 113 122 52 142 153 229 135 143 231 42 288 11 8 35 38 50 6 16 6 351 345 343 6 341 347 328 331 339 323 321
259 218 231 217 229 255 198 288 305 323 204 74 39 37 98 243 93 200 21 219 242 46 163 265 244 321 36 20 5 357 346 334 319 312 306 309 317 297 302 311 323 320 300 289
237 236 278 295 75 342 164 191 249 252 339 347 62 91 59 276 184 222 237 80 116 250 222 270 342 4 348 320 312 303 299 293 290 283 274 275 278 267 260 274 261 282 289 315
248 258 268 220 146 263 284 152 251 290 64 153 96 81 210 294 275 203 41 115 183 111 50 19 313 310 319 314 302 300 295 290 288 288 276 273 264 264 275 280 256 233 320 17